TimeEST,TemperatureF,Dew PointF,Humidity,Sea Level PressureIn,VisibilityMPH,Wind Direction,Wind SpeedMPH,Gust SpeedMPH,PrecipitationIn,Events,Conditions,WindDirDegrees,DateUTC
12:15 AM,33.8,26.6,75,30.36,10.0,NNE,5.8,-,N/A,,Unknown,20,2014-01-04 05:15:00
12:35 AM,33.8,26.6,75,30.36,10.0,NNE,6.9,-,N/A,,Unknown,20,2014-01-04 05:35:00
12:55 AM,33.8,26.6,75,30.36,10.0,NNE,4.6,-,N/A,,Unknown,20,2014-01-04 05:55:00
1:15 AM,33.8,24.8,70,30.35,10.0,NNE,5.8,-,N/A,,Unknown,30,2014-01-04 06:15:00
1:35 AM,33.8,24.8,70,30.34,10.0,NE,6.9,-,N/A,,Unknown,40,2014-01-04 06:35:00
1:55 AM,33.8,24.8,70,30.35,10.0,NE,8.1,-,N/A,,Unknown,40,2014-01-04 06:55:00
2:15 AM,33.8,24.8,70,30.34,10.0,NE,6.9,-,N/A,,Unknown,40,2014-01-04 07:15:00
2:35 AM,33.8,24.8,70,30.34,10.0,NNE,6.9,-,N/A,,Unknown,30,2014-01-04 07:35:00
2:55 AM,35.6,24.8,65,30.33,10.0,NE,9.2,-,N/A,,Unknown,40,2014-01-04 07:55:00
3:15 AM,35.6,24.8,65,30.34,10.0,NE,8.1,-,N/A,,Unknown,40,2014-01-04 08:15:00
3:35 AM,37.4,24.8,60,30.34,10.0,NNE,9.2,-,N/A,,Unknown,30,2014-01-04 08:35:00
3:55 AM,37.4,24.8,60,30.33,10.0,NE,9.2,-,N/A,,Unknown,40,2014-01-04 08:55:00
4:15 AM,37.4,26.6,65,30.32,10.0,NE,10.4,-,N/A,,Unknown,40,2014-01-04 09:15:00
4:35 AM,37.4,24.8,60,30.32,10.0,NE,10.4,16.1,N/A,,Unknown,40,2014-01-04 09:35:00
4:55 AM,37.4,26.6,65,30.33,10.0,NE,10.4,-,N/A,,Unknown,40,2014-01-04 09:55:00
5:15 AM,37.4,26.6,65,30.33,10.0,NE,10.4,-,N/A,,Unknown,40,2014-01-04 10:15:00
5:35 AM,37.4,26.6,65,30.32,10.0,NE,8.1,-,N/A,,Unknown,40,2014-01-04 10:35:00
5:55 AM,37.4,26.6,65,30.33,10.0,NE,9.2,-,N/A,,Unknown,40,2014-01-04 10:55:00
6:15 AM,37.4,26.6,65,30.33,10.0,NE,8.1,-,N/A,,Unknown,40,2014-01-04 11:15:00
6:35 AM,37.4,26.6,65,30.33,10.0,NNE,8.1,-,N/A,,Unknown,30,2014-01-04 11:35:00
6:55 AM,39.2,26.6,61,30.33,10.0,NNE,8.1,-,N/A,,Unknown,30,2014-01-04 11:55:00
7:15 AM,39.2,26.6,61,30.34,10.0,NNE,5.8,-,N/A,,Unknown,30,2014-01-04 12:15:00
7:35 AM,39.2,26.6,61,30.35,10.0,NE,6.9,-,N/A,,Unknown,40,2014-01-04 12:35:00
7:55 AM,39.2,28.4,65,30.35,10.0,NE,5.8,-,N/A,,Unknown,40,2014-01-04 12:55:00
8:15 AM,39.2,28.4,65,30.36,10.0,NE,6.9,-,N/A,,Unknown,50,2014-01-04 13:15:00
8:35 AM,39.2,28.4,65,30.36,10.0,NE,6.9,-,N/A,,Unknown,40,2014-01-04 13:35:00
8:55 AM,41.0,30.2,65,30.35,10.0,ENE,6.9,-,N/A,,Unknown,60,2014-01-04 13:55:00
9:15 AM,42.8,30.2,61,30.35,10.0,NE,8.1,-,N/A,,Unknown,50,2014-01-04 14:15:00
9:35 AM,42.8,32.0,66,30.36,10.0,ENE,8.1,-,N/A,,Unknown,70,2014-01-04 14:35:00
9:55 AM,42.8,33.8,70,30.37,10.0,NE,8.1,-,N/A,,Unknown,50,2014-01-04 14:55:00
10:15 AM,44.6,33.8,66,30.36,10.0,ENE,9.2,-,N/A,,Unknown,60,2014-01-04 15:15:00
10:35 AM,46.4,35.6,66,30.37,10.0,ENE,9.2,-,N/A,,Unknown,70,2014-01-04 15:35:00
10:55 AM,46.4,37.4,71,30.36,10.0,NE,9.2,-,N/A,,Unknown,40,2014-01-04 15:55:00
11:15 AM,48.2,39.2,71,30.34,10.0,ENE,6.9,-,N/A,,Unknown,70,2014-01-04 16:15:00
11:35 AM,50.0,39.2,66,30.34,10.0,NE,6.9,-,N/A,,Unknown,40,2014-01-04 16:35:00
11:55 AM,50.0,39.2,66,30.32,10.0,NE,6.9,-,N/A,,Unknown,50,2014-01-04 16:55:00
12:15 PM,51.8,41.0,67,30.31,10.0,ENE,5.8,-,N/A,,Unknown,60,2014-01-04 17:15:00
12:35 PM,53.6,42.8,67,30.29,10.0,NE,6.9,-,N/A,,Unknown,50,2014-01-04 17:35:00
12:55 PM,53.6,42.8,67,30.26,10.0,ENE,8.1,-,N/A,,Unknown,60,2014-01-04 17:55:00
1:15 PM,53.6,42.8,67,30.26,10.0,ENE,4.6,-,N/A,,Unknown,70,2014-01-04 18:15:00
1:35 PM,55.4,44.6,67,30.24,10.0,East,4.6,-,N/A,,Unknown,90,2014-01-04 18:35:00
1:55 PM,57.2,44.6,63,30.25,10.0,NE,5.8,-,N/A,,Scattered Clouds,50,2014-01-04 18:55:00
2:15 PM,57.2,46.4,67,30.25,10.0,ENE,6.9,-,N/A,,Scattered Clouds,60,2014-01-04 19:15:00
2:35 PM,57.2,46.4,67,30.24,10.0,ENE,6.9,-,N/A,,Clear,60,2014-01-04 19:35:00
2:55 PM,57.2,46.4,67,30.23,10.0,ENE,6.9,-,N/A,,Clear,70,2014-01-04 19:55:00
3:15 PM,57.2,46.4,67,30.25,10.0,East,4.6,-,N/A,,Clear,100,2014-01-04 20:15:00
3:35 PM,57.2,46.4,67,30.24,10.0,East,8.1,-,N/A,,Unknown,90,2014-01-04 20:35:00
3:55 PM,57.2,46.4,67,30.22,10.0,East,6.9,-,N/A,,Unknown,90,2014-01-04 20:55:00
4:15 PM,57.2,48.2,72,30.23,10.0,ENE,6.9,-,N/A,,Mostly Cloudy,60,2014-01-04 21:15:00
4:35 PM,55.4,46.4,72,30.22,10.0,ENE,6.9,-,N/A,,Mostly Cloudy,60,2014-01-04 21:35:00
4:55 PM,55.4,46.4,72,30.22,10.0,ENE,5.8,-,N/A,,Scattered Clouds,60,2014-01-04 21:55:00
5:15 PM,55.4,46.4,72,30.22,10.0,NE,4.6,-,N/A,,Scattered Clouds,50,2014-01-04 22:15:00
5:35 PM,55.4,46.4,72,30.22,10.0,NE,6.9,-,N/A,,Overcast,50,2014-01-04 22:35:00
5:55 PM,53.6,46.4,77,30.22,10.0,ENE,6.9,-,N/A,,Unknown,60,2014-01-04 22:55:00
6:15 PM,53.6,46.4,77,30.23,10.0,ENE,4.6,-,N/A,,Unknown,60,2014-01-04 23:15:00
6:35 PM,53.6,46.4,77,30.23,10.0,ENE,5.8,-,N/A,,Unknown,60,2014-01-04 23:35:00
6:55 PM,53.6,46.4,77,30.23,10.0,ENE,4.6,-,N/A,,Unknown,60,2014-01-04 23:55:00
7:15 PM,53.6,46.4,77,30.23,10.0,ENE,3.5,-,N/A,,Unknown,60,2014-01-05 00:15:00
7:35 PM,53.6,46.4,77,30.23,10.0,NE,5.8,-,N/A,,Unknown,50,2014-01-05 00:35:00
7:55 PM,51.8,46.4,82,30.24,10.0,ENE,4.6,-,N/A,,Unknown,60,2014-01-05 00:55:00
8:15 PM,51.8,46.4,82,30.23,10.0,NE,4.6,-,N/A,,Unknown,50,2014-01-05 01:15:00
8:35 PM,51.8,44.6,76,30.23,10.0,NE,4.6,-,N/A,,Unknown,40,2014-01-05 01:35:00
8:55 PM,51.8,44.6,76,30.23,10.0,NE,4.6,-,N/A,,Unknown,40,2014-01-05 01:55:00
9:15 PM,51.8,44.6,76,30.21,10.0,NE,4.6,-,N/A,,Unknown,50,2014-01-05 02:15:00
9:35 PM,51.8,44.6,76,30.21,10.0,NE,4.6,-,N/A,,Unknown,40,2014-01-05 02:35:00
9:55 PM,51.8,44.6,76,30.21,10.0,NE,4.6,-,N/A,,Unknown,40,2014-01-05 02:55:00
10:15 PM,50.0,44.6,82,30.21,10.0,NE,5.8,-,N/A,,Unknown,40,2014-01-05 03:15:00
10:35 PM,50.0,44.6,82,30.19,10.0,NE,5.8,-,N/A,,Unknown,50,2014-01-05 03:35:00
10:55 PM,50.0,44.6,82,30.17,10.0,ENE,4.6,-,N/A,,Unknown,60,2014-01-05 03:55:00
11:15 PM,50.0,44.6,82,30.16,10.0,NE,5.8,-,N/A,,Unknown,50,2014-01-05 04:15:00
11:35 PM,48.2,44.6,87,30.17,10.0,NE,4.6,-,N/A,,Unknown,40,2014-01-05 04:35:00
11:55 PM,48.2,44.6,87,30.16,10.0,NE,5.8,-,N/A,,Unknown,40,2014-01-05 04:55:00